Regional Weather Roundup
Issued by NWS Midland/Odessa, TX

Home | Current Version | Previous Version | Text Only | Print | Product List | Glossary On
Versions: 1 2 3 4 5 6 7 8 9 10 11 12 13 14 15 16 17 18 19 20 21 22 23 24 25 26 27 28 29 30 31 32 33 34 35 36 37 38 39 40 41 42 43 44 45 46 47 48 49 50
000
ASUS44 KMAF 030110
RWRMAF
MIDLAND AREA WEATHER ROUNDUP
NATIONAL WEATHER SERVICE MIDLAND TX
700 PM CST MON MAR 02 2015

...IN SOUTHWEST TEXAS AND SOUTHEAST NEW MEXICO...

CITY           SKY/WX    TMP DP  RH WIND       PRES   REMARKS
ALPINE         MOCLDY    49  40  73 NE5       30.10R
ANDREWS        CLOUDY    35  35 100 SE5       30.07F FOG     WCI  31
ARTESIA        CLOUDY    39  39 100 S9G16     30.06R WCI  33
BIG SPRING     CLOUDY    38  36  91 CALM      30.12F
CARLSBAD       CLOUDY    40  34  79 S12       30.05R WCI  33
DRYDEN           N/A     47  40  76 E6        30.07S
FORT STOCKTON  MOCLDY    41  38  89 NE8       30.05F WCI  36
GUAD PASS      NOT AVBL
HOBBS          PTCLDY    37  37 100 SE10      30.05R WCI  30
MARFA          MOCLDY    61  34  36 S5        30.03S
MIDLAND AIRPK  CLOUDY    38  38 100 CALM      30.10R FOG
MIDLAND INTL   FOG       37  36  96 SE5       30.09R VSB 1/2 WCI  33
ODESSA         CLOUDY    36  35  96 SE3       30.08F FOG
PECOS          MOCLDY    42  36  79 E6        30.07S WCI  39
PRESIDIO       FAIR      66  40  38 NE9       29.94R
SEMINOLE       CLOUDY    35  35  98 S6        30.08R FOG     WCI  30
SNYDER         CLOUDY    34  34  97 CALM      30.12S FOG
WINK           CLOUDY    42  33  70 E9        30.05F WCI  37
$$
...OTHER STATIONS IN TEXAS...

CITY           SKY/WX    TMP DP  RH WIND       PRES   REMARKS
ABILENE        CLOUDY    38  34  85 CALM      30.14F
AMARILLO       CLOUDY    33  30  88 S15       29.99F WCI  23
AUSTIN         DRZL/FOG  42  42 100 N9        30.17S VSB 1/2 WCI  37
BROWNSVILLE    FOG       57  56  96 N6        30.11F VSB 3/4
CORPUS CHRISTI DRZL/FOG  54  52  93 N7        30.14S VSB 1
DALLAS FTW     CLOUDY    40  38  93 CALM      30.20R FOG
DEL RIO        CLOUDY    51  45  79 SE8       30.10F
EL PASO        LGT RAIN  55  51  86 E7        29.97R
HOUSTON INT    CLOUDY    57  53  86 NE7       30.17R
LUBBOCK        CLOUDY    33  33 100 S8        30.04F FOG     WCI  26
SAN ANGELO     CLOUDY    38  36  92 NE6       30.13S WCI  33
SAN ANTONIO    DRZL/FOG  47  45  93 NE6       30.15S VSB 1/4
WACO           FOG       40  39  97 N6        30.20S VSB 1   WCI  36
WICHITA FALLS  NOT AVBL
$$
...OTHER LOCATIONS IN NEW MEXICO...

CITY           SKY/WX    TMP DP  RH WIND       PRES   REMARKS
ALAMAGORDO     CLOUDY    57  45  62 S16G23    29.96F
ALBUQUERQUE    CLOUDY    55  38  52 S29G36    29.84S
CANNON AFB     CLOUDY    36  34  93 S10       29.99R WCI  28
CLOVIS         CLOUDY    34  32  93 S13       29.98F WCI  25
HOLLOMAN AFB   MOCLDY    56  46  68 SW14      29.94S
ROSWELL        CLOUDY    39  34  82 S17       30.00S WCI  30
RUIDOSO        CLOUDY    45  39  81 SW26G39   29.97F WCI  35
SANTA FE       CLOUDY    52  32  46 S21G32    29.84S
TRUTH OR CONSE CLOUDY    56  46  69 S20G26    29.90S
TUCUMCARI      CLOUDY    37  33  85 SW14      29.95S WCI  28
$$


USA.gov is the U.S. government's official web portal to all federal, state and local government web resources and services.